(°C)
14°
15°
15°
15°
15°
15°
14°
(°C)
11°
12°
12°
12°
11°
10°
10°
K
K
K
K
K
K
K
(km/h)
10-18
10-18
11-18
10-17
10-18
11-18
11-17
(mm)
0
0
0
0
0
0
0
(%)
0
0
0
0
0
0
0

Napfelkelte

/ 54.2°
sun-icon
UV 4
04:07
20:46
Hold (fogyó félhold) (253°)
01:56
09:00

METAR 55.6°É 37.27°K (UUWW)-ért

Idő Feltételek Hőmérséklet/
Harmatpont
Szél Látási viszonyok Időjárás Felhők Légnyomás Módosítás Nyers
VFR 14°C / -2°C variable 4kt. Wind Shear present on Runway 06. >10km - Clouds and Visibility OK 1009 No Significant change UUWW 210930Z VRB02MPS CAVOK 14/M02 Q1009 WS R06 R06/000070 NOSIG
VFR 13°C / -2°C 140º 6kt >10km - Clouds and Visibility OK 1010 No Significant change UUWW 210900Z 14003MPS CAVOK 13/M02 Q1010 R06/000070 NOSIG
VFR 13°C / -3°C 120º variable 350º to 160º 6kt >10km - Clouds and Visibility OK 1010 No Significant change UUWW 210830Z 12003MPS 350V160 CAVOK 13/M03 Q1010 R06/000070 NOSIG
VFR 13°C / -1°C 110º 6kt >10km - Clouds and Visibility OK 1010 No Significant change UUWW 210800Z 11003MPS CAVOK 13/M01 Q1010 R06/000070 NOSIG
VFR 12°C / -4°C 120º variable 070º to 170º 6kt >10km - Clouds and Visibility OK 1011 No Significant change UUWW 210730Z 12003MPS 070V170 CAVOK 12/M04 Q1011 R06/000070 NOSIG
VFR 12°C / -2°C variable 6kt >10km - Clouds and Visibility OK 1011 No Significant change UUWW 210700Z VRB03MPS CAVOK 12/M02 Q1011 R06/000070 NOSIG
VFR 12°C / -1°C 140º 6kt >10km - Clouds and Visibility OK 1011 No Significant change UUWW 210630Z 14003MPS CAVOK 12/M01 Q1011 R19/000070 NOSIG
VFR 11°C / -2°C 150º variable 080º to 180º 4kt >10km - Clouds and Visibility OK 1012 No Significant change UUWW 210600Z 15002MPS 080V180 CAVOK 11/M02 Q1012 R19/000070 NOSIG
VFR 10°C / -1°C 170º variable 130º to 200º 4kt >10km - Clouds and Visibility OK 1012 No Significant change UUWW 210530Z 17002MPS 130V200 CAVOK 10/M01 Q1012 R19/000070 NOSIG
VFR 9°C / -1°C 130º 4kt >10km - Clouds and Visibility OK 1012 No Significant change UUWW 210500Z 13002MPS CAVOK 09/M01 Q1012 R19/000070 NOSIG
VFR 8°C / -2°C 130º 6kt >10km - Clouds and Visibility OK 1013 No Significant change UUWW 210430Z 13003MPS CAVOK 08/M02 Q1013 R19/000070 NOSIG
VFR 7°C / -2°C 120º 6kt >10km - Clouds and Visibility OK 1013 No Significant change UUWW 210400Z 12003MPS CAVOK 07/M02 Q1013 R06/000070 NOSIG
VFR 6°C / -2°C 130º 4kt >10km - Clouds and Visibility OK 1013 No Significant change UUWW 210330Z 13002MPS CAVOK 06/M02 Q1013 R06/000070 NOSIG
VFR 5°C / -2°C 130º 4kt >10km - Clouds and Visibility OK 1013 No Significant change UUWW 210300Z 13002MPS CAVOK 05/M02 Q1013 R06/000070 NOSIG
VFR 5°C / -2°C 120º 4kt >10km - Clouds and Visibility OK 1013 No Significant change UUWW 210230Z 12002MPS CAVOK 05/M02 Q1013 R06/000070 NOSIG
VFR 5°C / -3°C 130º 2kt >10km - Clouds and Visibility OK 1013 No Significant change UUWW 210200Z 13001MPS CAVOK 05/M03 Q1013 R06/000070 NOSIG
VFR 4°C / -3°C 120º 2kt >10km - Clouds and Visibility OK 1013 No Significant change UUWW 210130Z 12001MPS CAVOK 04/M03 Q1013 R06/000070 NOSIG
VFR 5°C / -3°C 130º 4kt >10km - Clouds and Visibility OK 1013 No Significant change UUWW 210100Z 13002MPS CAVOK 05/M03 Q1013 R06/000070 NOSIG
VFR 5°C / -3°C 130º 2kt >10km - Clouds and Visibility OK 1014 No Significant change UUWW 210030Z 13001MPS CAVOK 05/M03 Q1014 R06/000070 NOSIG
VFR 5°C / -3°C 130º 2kt >10km - Clouds and Visibility OK 1014 No Significant change UUWW 210000Z 13001MPS CAVOK 05/M03 Q1014 R06/000070 NOSIG
VFR 6°C / -3°C 130º 2kt >10km - Clouds and Visibility OK 1014 No Significant change UUWW 202330Z 13001MPS CAVOK 06/M03 Q1014 R06/000070 NOSIG
VFR 6°C / -3°C 130º 2kt >10km - Clouds and Visibility OK 1014 No Significant change UUWW 202300Z 13001MPS CAVOK 06/M03 Q1014 R06/000070 NOSIG
VFR 7°C / -3°C 110º 2kt >10km - Clouds and Visibility OK 1014 No Significant change UUWW 202230Z 11001MPS CAVOK 07/M03 Q1014 R06/000070 NOSIG
VFR 6°C / -2°C 110º 2kt >10km - Clouds and Visibility OK 1014 No Significant change UUWW 202200Z 11001MPS CAVOK 06/M02 Q1014 R06/000070 NOSIG

VFR

14°C / -2°C

[Több]
Szél variable 4kt. Wind Shear present on Runway 06.
Látási viszonyok >10km
Időjárás -
Felhők Clouds and Visibility OK
Légnyomás 1009
Módosítás No Significant change
Nyers UUWW 210930Z VRB02MPS CAVOK 14/M02 Q1009 WS R06 R06/000070 NOSIG

VFR

13°C / -2°C

[Több]
Szél 140º 6kt
Látási viszonyok >10km
Időjárás -
Felhők Clouds and Visibility OK
Légnyomás 1010
Módosítás No Significant change
Nyers UUWW 210900Z 14003MPS CAVOK 13/M02 Q1010 R06/000070 NOSIG

VFR

13°C / -3°C

[Több]
Szél 120º variable 350º to 160º 6kt
Látási viszonyok >10km
Időjárás -
Felhők Clouds and Visibility OK
Légnyomás 1010
Módosítás No Significant change
Nyers UUWW 210830Z 12003MPS 350V160 CAVOK 13/M03 Q1010 R06/000070 NOSIG

VFR

13°C / -1°C

[Több]
Szél 110º 6kt
Látási viszonyok >10km
Időjárás -
Felhők Clouds and Visibility OK
Légnyomás 1010
Módosítás No Significant change
Nyers UUWW 210800Z 11003MPS CAVOK 13/M01 Q1010 R06/000070 NOSIG

VFR

12°C / -4°C

[Több]
Szél 120º variable 070º to 170º 6kt
Látási viszonyok >10km
Időjárás -
Felhők Clouds and Visibility OK
Légnyomás 1011
Módosítás No Significant change
Nyers UUWW 210730Z 12003MPS 070V170 CAVOK 12/M04 Q1011 R06/000070 NOSIG

VFR

12°C / -2°C

[Több]
Szél variable 6kt
Látási viszonyok >10km
Időjárás -
Felhők Clouds and Visibility OK
Légnyomás 1011
Módosítás No Significant change
Nyers UUWW 210700Z VRB03MPS CAVOK 12/M02 Q1011 R06/000070 NOSIG

VFR

12°C / -1°C

[Több]
Szél 140º 6kt
Látási viszonyok >10km
Időjárás -
Felhők Clouds and Visibility OK
Légnyomás 1011
Módosítás No Significant change
Nyers UUWW 210630Z 14003MPS CAVOK 12/M01 Q1011 R19/000070 NOSIG

VFR

11°C / -2°C

[Több]
Szél 150º variable 080º to 180º 4kt
Látási viszonyok >10km
Időjárás -
Felhők Clouds and Visibility OK
Légnyomás 1012
Módosítás No Significant change
Nyers UUWW 210600Z 15002MPS 080V180 CAVOK 11/M02 Q1012 R19/000070 NOSIG

VFR

10°C / -1°C

[Több]
Szél 170º variable 130º to 200º 4kt
Látási viszonyok >10km
Időjárás -
Felhők Clouds and Visibility OK
Légnyomás 1012
Módosítás No Significant change
Nyers UUWW 210530Z 17002MPS 130V200 CAVOK 10/M01 Q1012 R19/000070 NOSIG

VFR

9°C / -1°C

[Több]
Szél 130º 4kt
Látási viszonyok >10km
Időjárás -
Felhők Clouds and Visibility OK
Légnyomás 1012
Módosítás No Significant change
Nyers UUWW 210500Z 13002MPS CAVOK 09/M01 Q1012 R19/000070 NOSIG

VFR

8°C / -2°C

[Több]
Szél 130º 6kt
Látási viszonyok >10km
Időjárás -
Felhők Clouds and Visibility OK
Légnyomás 1013
Módosítás No Significant change
Nyers UUWW 210430Z 13003MPS CAVOK 08/M02 Q1013 R19/000070 NOSIG

VFR

7°C / -2°C

[Több]
Szél 120º 6kt
Látási viszonyok >10km
Időjárás -
Felhők Clouds and Visibility OK
Légnyomás 1013
Módosítás No Significant change
Nyers UUWW 210400Z 12003MPS CAVOK 07/M02 Q1013 R06/000070 NOSIG

VFR

6°C / -2°C

[Több]
Szél 130º 4kt
Látási viszonyok >10km
Időjárás -
Felhők Clouds and Visibility OK
Légnyomás 1013
Módosítás No Significant change
Nyers UUWW 210330Z 13002MPS CAVOK 06/M02 Q1013 R06/000070 NOSIG

VFR

5°C / -2°C

[Több]
Szél 130º 4kt
Látási viszonyok >10km
Időjárás -
Felhők Clouds and Visibility OK
Légnyomás 1013
Módosítás No Significant change
Nyers UUWW 210300Z 13002MPS CAVOK 05/M02 Q1013 R06/000070 NOSIG

VFR

5°C / -2°C

[Több]
Szél 120º 4kt
Látási viszonyok >10km
Időjárás -
Felhők Clouds and Visibility OK
Légnyomás 1013
Módosítás No Significant change
Nyers UUWW 210230Z 12002MPS CAVOK 05/M02 Q1013 R06/000070 NOSIG

VFR

5°C / -3°C

[Több]
Szél 130º 2kt
Látási viszonyok >10km
Időjárás -
Felhők Clouds and Visibility OK
Légnyomás 1013
Módosítás No Significant change
Nyers UUWW 210200Z 13001MPS CAVOK 05/M03 Q1013 R06/000070 NOSIG

VFR

4°C / -3°C

[Több]
Szél 120º 2kt
Látási viszonyok >10km
Időjárás -
Felhők Clouds and Visibility OK
Légnyomás 1013
Módosítás No Significant change
Nyers UUWW 210130Z 12001MPS CAVOK 04/M03 Q1013 R06/000070 NOSIG

VFR

5°C / -3°C

[Több]
Szél 130º 4kt
Látási viszonyok >10km
Időjárás -
Felhők Clouds and Visibility OK
Légnyomás 1013
Módosítás No Significant change
Nyers UUWW 210100Z 13002MPS CAVOK 05/M03 Q1013 R06/000070 NOSIG

VFR

5°C / -3°C

[Több]
Szél 130º 2kt
Látási viszonyok >10km
Időjárás -
Felhők Clouds and Visibility OK
Légnyomás 1014
Módosítás No Significant change
Nyers UUWW 210030Z 13001MPS CAVOK 05/M03 Q1014 R06/000070 NOSIG

VFR

5°C / -3°C

[Több]
Szél 130º 2kt
Látási viszonyok >10km
Időjárás -
Felhők Clouds and Visibility OK
Légnyomás 1014
Módosítás No Significant change
Nyers UUWW 210000Z 13001MPS CAVOK 05/M03 Q1014 R06/000070 NOSIG

VFR

6°C / -3°C

[Több]
Szél 130º 2kt
Látási viszonyok >10km
Időjárás -
Felhők Clouds and Visibility OK
Légnyomás 1014
Módosítás No Significant change
Nyers UUWW 202330Z 13001MPS CAVOK 06/M03 Q1014 R06/000070 NOSIG

VFR

6°C / -3°C

[Több]
Szél 130º 2kt
Látási viszonyok >10km
Időjárás -
Felhők Clouds and Visibility OK
Légnyomás 1014
Módosítás No Significant change
Nyers UUWW 202300Z 13001MPS CAVOK 06/M03 Q1014 R06/000070 NOSIG

VFR

7°C / -3°C

[Több]
Szél 110º 2kt
Látási viszonyok >10km
Időjárás -
Felhők Clouds and Visibility OK
Légnyomás 1014
Módosítás No Significant change
Nyers UUWW 202230Z 11001MPS CAVOK 07/M03 Q1014 R06/000070 NOSIG

VFR

6°C / -2°C

[Több]
Szél 110º 2kt
Látási viszonyok >10km
Időjárás -
Felhők Clouds and Visibility OK
Légnyomás 1014
Módosítás No Significant change
Nyers UUWW 202200Z 11001MPS CAVOK 06/M02 Q1014 R06/000070 NOSIG

TAF 55.6°É 37.27°K (UUWW)-ért

From till


Maximum Temperature 15ºC on . Minimum Temperature 5ºC on .
From till Wind 120º 6kt. Gust 16kt. Visibility 10km or more. Nil Significant Cloud.
Becoming from till Wind 60º 12kt. Visibility 10km or more. Nil Significant Cloud.
Temporarly from till Wind 50º 16kt. Gust 27kt.

Nyers: TAF UUWW 210756Z 2109/2209 12003G08MPS CAVOK TX15/2112Z TN05/2201Z BECMG 2118/2120 06006MPS TEMPO 2206/2209 05008G14MPS

Radarkép és ultrarövid távú csapadék-előrejelzés a következő helyhez: 55.6°É 37.27°K

Szitáló eső
Enyhe
Mérsékelt
Erős
Nagyon nehéz
Jégeső

A helyzetjelző helye: 55.6°É 37.27°K. Ez az animáció bemutatja a csapadékradart az elmúlt órára vonatkozóan, valamint előrejelzést az elkövetkező 1 órára. A szitáló eső vagy enyhe hóesés láthatatlan lehet a radar számára. A csapadék intenzitása színkóddal van jelölve, a világoskéktől a narancssárgáig.

Aktuális műholdas és esőképek ezen a helyen: 55.6°É 37.27°K

A helyszín jelölő a következő helyen van elhelyezve: 55.6°É 37.27°K. [Több]

A valós idejű műholdas kép ötvözi a nappali látható fényt az éjszakai infravörös sugárzással. Éjjel a kép nem sötét, mivel az infravörös sugárzás képes érzékelni a hőmérséklet-különbségeket. Sajnos az alacsony felhőket és a ködöt nehéz megkülönböztetni a talaj hőmérsékletétől, így az éjszaka folyamán szinte láthatatlanok lehetnek. A Meteosat európai műholdképei valós időben frissülnek minden 5 percben. A GOES-16/GOES-17 (Észak- és Dél-Amerika) és Himawari (Ázsia) képei 10 percenként frissülnek.

Minden jog fenntartva 2022 EUMETSAT / meteoblue. / Minden jog fenntartva 2022 meteoblue

Vissza a tetejére